Year,Month,Day,Hour,Minute,Value (Times are PST for temperature in C)
2015,05,12,00,00,11.00
2015,05,12,00,01,11.00
2015,05,12,00,02,11.00
2015,05,12,00,03,11.00
2015,05,12,00,04,10.90
2015,05,12,00,05,10.90
2015,05,12,00,06,10.90
2015,05,12,00,07,10.90
2015,05,12,00,08,10.90
2015,05,12,00,09,10.90
2015,05,12,00,10,10.90
2015,05,12,00,11,10.90
2015,05,12,00,12,10.90
2015,05,12,00,13,10.80
2015,05,12,00,14,10.80
2015,05,12,00,15,10.80
2015,05,12,00,16,10.80
2015,05,12,00,17,10.80
2015,05,12,00,18,10.80
2015,05,12,00,19,10.80
2015,05,12,00,20,10.80
2015,05,12,00,21,10.80
2015,05,12,00,22,10.80
2015,05,12,00,23,10.80
2015,05,12,00,24,10.90
2015,05,12,00,25,10.90
2015,05,12,00,26,10.90
2015,05,12,00,27,11.00
2015,05,12,00,28,11.00
2015,05,12,00,29,11.00
2015,05,12,00,30,11.00
2015,05,12,00,31,11.00
2015,05,12,00,32,11.00
2015,05,12,00,33,11.10
2015,05,12,00,34,11.10
2015,05,12,00,35,11.10
2015,05,12,00,36,11.10
2015,05,12,00,37,11.20
2015,05,12,00,38,11.20
2015,05,12,00,39,11.20
2015,05,12,00,40,11.30
2015,05,12,00,41,11.30
2015,05,12,00,42,11.30
2015,05,12,00,43,11.30
2015,05,12,00,44,11.30
2015,05,12,00,45,11.30
2015,05,12,00,46,11.30
2015,05,12,00,47,11.30
2015,05,12,00,48,11.30
2015,05,12,00,49,11.30
2015,05,12,00,50,11.30
2015,05,12,00,51,11.30
2015,05,12,00,52,11.30
2015,05,12,00,53,11.30
2015,05,12,00,54,11.30
2015,05,12,00,55,11.30
2015,05,12,00,56,11.30
2015,05,12,00,57,11.30
2015,05,12,00,58,11.30
2015,05,12,00,59,11.30
2015,05,12,01,00,11.30
2015,05,12,01,01,11.30
2015,05,12,01,02,11.30
2015,05,12,01,03,11.40
2015,05,12,01,04,11.40
2015,05,12,01,05,11.40
2015,05,12,01,06,11.40
2015,05,12,01,07,11.40
2015,05,12,01,08,11.40
2015,05,12,01,09,11.40
2015,05,12,01,10,11.40
2015,05,12,01,11,11.40
2015,05,12,01,12,11.40
2015,05,12,01,13,11.40
2015,05,12,01,14,11.40
2015,05,12,01,15,11.40
2015,05,12,01,16,11.40
2015,05,12,01,17,11.40
2015,05,12,01,18,11.40
2015,05,12,01,19,11.40
2015,05,12,01,20,11.40
2015,05,12,01,21,11.40
2015,05,12,01,22,11.40
2015,05,12,01,23,11.40
2015,05,12,01,24,11.40
2015,05,12,01,25,11.40
2015,05,12,01,26,11.40
2015,05,12,01,27,11.50
2015,05,12,01,28,11.40
2015,05,12,01,29,11.50
2015,05,12,01,30,11.40
2015,05,12,01,31,11.50
2015,05,12,01,32,11.50
2015,05,12,01,33,11.50
2015,05,12,01,34,11.50
2015,05,12,01,35,11.50
2015,05,12,01,36,11.50
2015,05,12,01,37,11.50
2015,05,12,01,38,11.50
2015,05,12,01,39,11.50
2015,05,12,01,40,11.50
2015,05,12,01,41,11.50
2015,05,12,01,42,11.50
2015,05,12,01,43,11.50
2015,05,12,01,44,11.50
2015,05,12,01,45,11.60
2015,05,12,01,46,11.60
2015,05,12,01,47,11.50
2015,05,12,01,48,11.60
2015,05,12,01,49,11.60
2015,05,12,01,50,11.60
2015,05,12,01,51,11.60
2015,05,12,01,52,11.60
2015,05,12,01,53,11.60
2015,05,12,01,54,11.60
2015,05,12,01,55,11.60
2015,05,12,01,56,11.60
2015,05,12,01,57,11.60
2015,05,12,01,58,11.60
2015,05,12,01,59,11.70
2015,05,12,02,00,11.70
2015,05,12,02,01,11.70
2015,05,12,02,02,11.70
2015,05,12,02,03,11.70
2015,05,12,02,04,11.70
2015,05,12,02,05,11.70
2015,05,12,02,06,11.70
2015,05,12,02,07,11.80
2015,05,12,02,08,11.80
2015,05,12,02,09,11.80
2015,05,12,02,10,11.80
2015,05,12,02,11,11.80
2015,05,12,02,12,11.80
2015,05,12,02,13,11.80
2015,05,12,02,14,11.80
2015,05,12,02,15,11.80
2015,05,12,02,16,11.80
2015,05,12,02,17,11.80
2015,05,12,02,18,11.80
2015,05,12,02,19,11.80
2015,05,12,02,20,11.80
2015,05,12,02,21,11.80
2015,05,12,02,22,11.80
2015,05,12,02,23,11.80
2015,05,12,02,24,11.90
2015,05,12,02,25,11.90
2015,05,12,02,26,11.90
2015,05,12,02,27,11.90
2015,05,12,02,28,11.90
2015,05,12,02,29,11.90
2015,05,12,02,30,11.90
2015,05,12,02,31,11.90
2015,05,12,02,32,11.90
2015,05,12,02,33,11.90
2015,05,12,02,34,11.90
2015,05,12,02,35,11.90
2015,05,12,02,36,11.90
2015,05,12,02,37,11.90
2015,05,12,02,38,11.90
2015,05,12,02,39,11.90
2015,05,12,02,40,11.90
2015,05,12,02,41,11.90
2015,05,12,02,42,11.90
2015,05,12,02,43,11.90
2015,05,12,02,44,11.90
2015,05,12,02,45,11.90
2015,05,12,02,46,11.90
2015,05,12,02,47,11.90
2015,05,12,02,48,11.90
2015,05,12,02,49,11.90
2015,05,12,02,50,11.90
2015,05,12,02,51,11.90
2015,05,12,02,52,11.90
2015,05,12,02,53,11.90
2015,05,12,02,54,11.80
2015,05,12,02,55,11.80
2015,05,12,02,56,11.80
2015,05,12,02,57,11.80
2015,05,12,02,58,11.80
2015,05,12,02,59,11.80
2015,05,12,03,00,11.80
2015,05,12,03,01,11.80
2015,05,12,03,02,11.80
2015,05,12,03,06,11.80
2015,05,12,03,07,11.80
2015,05,12,03,08,11.80
2015,05,12,03,09,11.80
2015,05,12,03,10,11.80
2015,05,12,03,11,11.80
2015,05,12,03,12,11.80
2015,05,12,03,13,11.80
2015,05,12,03,14,11.80
2015,05,12,03,15,11.80
2015,05,12,03,16,11.80
2015,05,12,03,17,11.80
2015,05,12,03,18,11.80
2015,05,12,03,19,11.80
2015,05,12,03,20,11.80
2015,05,12,03,21,11.80
2015,05,12,03,22,11.80
2015,05,12,03,23,11.80
2015,05,12,03,24,11.80
2015,05,12,03,25,11.80
2015,05,12,03,26,11.80
2015,05,12,03,27,11.80
2015,05,12,03,28,11.80
2015,05,12,03,29,11.80
2015,05,12,03,30,11.80
2015,05,12,03,31,11.80
2015,05,12,03,32,11.80
2015,05,12,03,33,11.80
2015,05,12,03,34,11.80
2015,05,12,03,35,11.70
2015,05,12,03,36,11.70
2015,05,12,03,37,11.70
2015,05,12,03,38,11.70
2015,05,12,03,39,11.70
2015,05,12,03,40,11.70
2015,05,12,03,41,11.70
2015,05,12,03,42,11.70
2015,05,12,03,43,11.70
2015,05,12,03,44,11.70
2015,05,12,03,45,11.70
2015,05,12,03,46,11.70
2015,05,12,03,47,11.70
2015,05,12,03,48,11.70
2015,05,12,03,49,11.70
2015,05,12,03,50,11.80
2015,05,12,03,51,11.80
2015,05,12,03,52,11.80
2015,05,12,03,53,11.80
2015,05,12,03,54,11.80
2015,05,12,03,55,11.80
2015,05,12,03,56,11.80
2015,05,12,03,57,11.80
2015,05,12,03,58,11.80
2015,05,12,03,59,11.80
2015,05,12,04,00,11.80
2015,05,12,04,01,11.80
2015,05,12,04,02,11.80
2015,05,12,04,03,11.80
2015,05,12,04,04,11.80
2015,05,12,04,05,11.80
2015,05,12,04,06,11.80
2015,05,12,04,07,11.80
2015,05,12,04,08,11.80
2015,05,12,04,09,11.80
2015,05,12,04,10,11.80
2015,05,12,04,11,11.80
2015,05,12,04,12,11.80
2015,05,12,04,13,11.80
2015,05,12,04,14,11.80
2015,05,12,04,15,11.80
2015,05,12,04,16,11.80
2015,05,12,04,17,11.80
2015,05,12,04,18,11.80
2015,05,12,04,19,11.80
2015,05,12,04,20,11.80
2015,05,12,04,21,11.70
2015,05,12,04,22,11.70
2015,05,12,04,23,11.70
2015,05,12,04,24,11.70
2015,05,12,04,25,11.70
2015,05,12,04,26,11.70
2015,05,12,04,27,11.70
2015,05,12,04,28,11.70
2015,05,12,04,29,11.70
2015,05,12,04,30,11.70
2015,05,12,04,31,11.70
2015,05,12,04,32,11.70
2015,05,12,04,33,11.70
2015,05,12,04,34,11.70
2015,05,12,04,35,11.70
2015,05,12,04,36,11.70
2015,05,12,04,37,11.70
2015,05,12,04,38,11.70
2015,05,12,04,39,11.70
2015,05,12,04,40,11.70
2015,05,12,04,41,11.70
2015,05,12,04,42,11.70
2015,05,12,04,43,11.70
2015,05,12,04,44,11.70
2015,05,12,04,45,11.70
2015,05,12,04,46,11.70
2015,05,12,04,47,11.70
2015,05,12,04,48,11.70
2015,05,12,04,49,11.70
2015,05,12,04,50,11.70
2015,05,12,04,51,11.70
2015,05,12,04,52,11.70
2015,05,12,04,53,11.70
2015,05,12,04,54,11.70
2015,05,12,04,55,11.70
2015,05,12,04,56,11.70
2015,05,12,04,57,11.70
2015,05,12,04,58,11.70
2015,05,12,04,59,11.80
2015,05,12,05,00,11.80
2015,05,12,05,01,11.80
2015,05,12,05,02,11.80
2015,05,12,05,03,11.80
2015,05,12,05,04,11.80
2015,05,12,05,05,11.80
2015,05,12,05,06,11.80
2015,05,12,05,07,11.80
2015,05,12,05,08,11.80
2015,05,12,05,09,11.80
2015,05,12,05,10,11.80
2015,05,12,05,11,11.80
2015,05,12,05,12,11.80
2015,05,12,05,13,11.80
2015,05,12,05,14,11.80
2015,05,12,05,15,11.80
2015,05,12,05,16,11.80
2015,05,12,05,17,11.80
2015,05,12,05,18,11.80
2015,05,12,05,19,11.80
2015,05,12,05,20,11.80
2015,05,12,05,21,11.80
2015,05,12,05,22,11.80
2015,05,12,05,23,11.80
2015,05,12,05,24,11.80
2015,05,12,05,25,11.80
2015,05,12,05,26,11.70
2015,05,12,05,27,11.70
2015,05,12,05,28,11.70
2015,05,12,05,29,11.70
2015,05,12,05,30,11.70
2015,05,12,05,31,11.70
2015,05,12,05,32,11.70
2015,05,12,05,33,11.70
2015,05,12,05,34,11.70
2015,05,12,05,35,11.70
2015,05,12,05,36,11.70
2015,05,12,05,37,11.70
2015,05,12,05,38,11.70
2015,05,12,05,39,11.70
2015,05,12,05,40,11.70
2015,05,12,05,41,11.70
2015,05,12,05,42,11.70
2015,05,12,05,43,11.70
2015,05,12,05,44,11.70
2015,05,12,05,45,11.70
2015,05,12,05,46,11.70
2015,05,12,05,47,11.70
2015,05,12,05,48,11.70
2015,05,12,05,49,11.70
2015,05,12,05,50,11.70
2015,05,12,05,51,11.60
2015,05,12,05,52,11.60
2015,05,12,05,53,11.70
2015,05,12,05,54,11.60
2015,05,12,05,55,11.60
2015,05,12,05,56,11.60
2015,05,12,05,57,11.60
2015,05,12,05,58,11.60
2015,05,12,05,59,11.60
2015,05,12,06,00,11.60
2015,05,12,06,01,11.60
2015,05,12,06,02,11.60
2015,05,12,06,03,11.60
2015,05,12,06,04,11.60
2015,05,12,06,05,11.60
2015,05,12,06,06,11.60
2015,05,12,06,07,11.60
2015,05,12,06,08,11.60
2015,05,12,06,09,11.60
2015,05,12,06,10,11.60
2015,05,12,06,11,11.60
2015,05,12,06,12,11.60
2015,05,12,06,13,11.60
2015,05,12,06,14,11.60
2015,05,12,06,15,11.60
2015,05,12,06,16,11.60
2015,05,12,06,17,11.60
2015,05,12,06,18,11.60
2015,05,12,06,19,11.60
2015,05,12,06,20,11.60
2015,05,12,06,21,11.60
2015,05,12,06,22,11.60
2015,05,12,06,23,11.60
2015,05,12,06,24,11.60
2015,05,12,06,25,11.60
2015,05,12,06,26,11.60
2015,05,12,06,27,11.60
2015,05,12,06,28,11.60
2015,05,12,06,29,11.60
2015,05,12,06,30,11.60
2015,05,12,06,31,11.70
2015,05,12,06,32,11.70
2015,05,12,06,33,11.70
2015,05,12,06,34,11.70
2015,05,12,06,35,11.70
2015,05,12,06,36,11.70
2015,05,12,06,37,11.70
2015,05,12,06,38,11.70
2015,05,12,06,39,11.70
2015,05,12,06,40,11.70
2015,05,12,06,41,11.70
2015,05,12,06,42,11.70
2015,05,12,06,43,11.70
2015,05,12,06,44,11.70
2015,05,12,06,45,11.70
2015,05,12,06,46,11.70
2015,05,12,06,47,11.70
2015,05,12,06,48,11.70
2015,05,12,06,49,11.70
2015,05,12,06,50,11.70
2015,05,12,06,51,11.70
2015,05,12,06,52,11.70
2015,05,12,06,53,11.80
2015,05,12,06,54,11.80
2015,05,12,06,55,11.80
2015,05,12,06,56,11.80
2015,05,12,06,57,11.80
2015,05,12,06,58,11.80
2015,05,12,06,59,11.80
2015,05,12,07,00,11.80
2015,05,12,07,01,11.80
2015,05,12,07,02,11.80
2015,05,12,07,03,11.80
2015,05,12,07,04,11.90
2015,05,12,07,05,11.90
2015,05,12,07,06,11.90
2015,05,12,07,07,11.90
2015,05,12,07,08,11.90
2015,05,12,07,09,11.90
2015,05,12,07,10,11.90
2015,05,12,07,11,11.90
2015,05,12,07,12,11.90
2015,05,12,07,13,11.90
2015,05,12,07,14,11.90
2015,05,12,07,15,11.90
2015,05,12,07,16,12.00
2015,05,12,07,17,12.00
2015,05,12,07,18,12.00
2015,05,12,07,19,12.10
2015,05,12,07,20,12.10
2015,05,12,07,21,12.10
2015,05,12,07,22,12.20
2015,05,12,07,23,12.20
2015,05,12,07,24,12.30
2015,05,12,07,25,12.30
2015,05,12,07,26,12.40
2015,05,12,07,27,12.50
2015,05,12,07,28,12.50
2015,05,12,07,29,12.50
2015,05,12,07,30,12.60
2015,05,12,07,31,12.60
2015,05,12,07,32,12.60
2015,05,12,07,33,12.60
2015,05,12,07,34,12.70
2015,05,12,07,35,12.70
2015,05,12,07,36,12.70
2015,05,12,07,37,12.80
2015,05,12,07,38,12.80
2015,05,12,07,39,12.90
2015,05,12,07,40,12.90
2015,05,12,07,41,12.90
2015,05,12,07,42,12.90
2015,05,12,07,43,12.90
2015,05,12,07,44,12.90
2015,05,12,07,45,12.90
2015,05,12,07,46,12.90
2015,05,12,07,47,13.00
2015,05,12,07,48,12.90
2015,05,12,07,49,13.00
2015,05,12,07,50,13.00
2015,05,12,07,51,13.00
2015,05,12,07,52,13.00
2015,05,12,07,53,13.10
2015,05,12,07,54,13.10
2015,05,12,07,55,13.10
2015,05,12,07,56,13.20
2015,05,12,07,57,13.20
2015,05,12,07,58,13.20
2015,05,12,07,59,13.20
2015,05,12,08,00,13.20
2015,05,12,08,01,13.20
2015,05,12,08,02,13.20
2015,05,12,08,03,13.20
2015,05,12,08,04,13.20
2015,05,12,08,05,13.30
2015,05,12,08,06,13.30
2015,05,12,08,07,13.30
2015,05,12,08,08,13.30
2015,05,12,08,09,13.30
2015,05,12,08,10,13.30
2015,05,12,08,11,13.30
2015,05,12,08,12,13.30
2015,05,12,08,13,13.30
2015,05,12,08,14,13.30
2015,05,12,08,15,13.30
2015,05,12,08,16,13.30
2015,05,12,08,17,13.30
2015,05,12,08,18,13.40
2015,05,12,08,19,13.40
2015,05,12,08,20,13.40
2015,05,12,08,21,13.40
2015,05,12,08,22,13.40
2015,05,12,08,23,13.40
2015,05,12,08,24,13.40
2015,05,12,08,25,13.40
2015,05,12,08,26,13.50
2015,05,12,08,27,13.50
2015,05,12,08,28,13.50
2015,05,12,08,29,13.40
2015,05,12,08,30,13.40
2015,05,12,08,31,13.40
2015,05,12,08,32,13.40
2015,05,12,08,33,13.40
2015,05,12,08,34,13.40
2015,05,12,08,35,13.40
2015,05,12,08,36,13.40
2015,05,12,08,37,13.40
2015,05,12,08,38,13.40
2015,05,12,08,39,13.40
2015,05,12,08,40,13.40
2015,05,12,08,41,13.40
2015,05,12,08,42,13.40
2015,05,12,08,43,13.40
2015,05,12,08,44,13.40
2015,05,12,08,45,13.40
2015,05,12,08,46,13.40
2015,05,12,08,47,13.30
2015,05,12,08,48,13.30
2015,05,12,08,49,13.40
2015,05,12,08,50,13.40
2015,05,12,08,51,13.40
2015,05,12,08,52,13.40
2015,05,12,08,53,13.40
2015,05,12,08,54,13.40
2015,05,12,08,55,13.30
2015,05,12,08,56,13.30
2015,05,12,08,57,13.40
2015,05,12,08,58,13.40
2015,05,12,08,59,13.40
2015,05,12,09,00,13.40
2015,05,12,09,01,13.50
2015,05,12,09,02,13.50
2015,05,12,09,03,13.50
2015,05,12,09,04,13.60
2015,05,12,09,05,13.60
2015,05,12,09,06,13.60
2015,05,12,09,07,13.60
2015,05,12,09,08,13.60
2015,05,12,09,09,13.70
2015,05,12,09,10,13.70
2015,05,12,09,11,13.70
2015,05,12,09,12,13.70
2015,05,12,09,13,13.80
2015,05,12,09,14,13.80
2015,05,12,09,15,13.80
2015,05,12,09,16,13.80
2015,05,12,09,17,13.80
2015,05,12,09,18,13.70
2015,05,12,09,19,13.70
2015,05,12,09,20,13.70
2015,05,12,09,21,13.80
2015,05,12,09,22,13.80
2015,05,12,09,23,13.80
2015,05,12,09,24,13.80
2015,05,12,09,25,13.80
2015,05,12,09,26,13.80
2015,05,12,09,27,13.80
2015,05,12,09,28,13.80
2015,05,12,09,29,13.80
2015,05,12,09,30,13.80
2015,05,12,09,31,13.80
2015,05,12,09,32,13.80
2015,05,12,09,33,13.80
2015,05,12,09,34,13.80
2015,05,12,09,35,13.80
2015,05,12,09,36,13.80
2015,05,12,09,37,13.80
2015,05,12,09,38,13.80
2015,05,12,09,39,13.80
2015,05,12,09,40,13.80
2015,05,12,09,41,13.90
2015,05,12,09,42,13.90
2015,05,12,09,43,13.90
2015,05,12,09,44,13.90
2015,05,12,09,45,13.90
2015,05,12,09,46,13.90
2015,05,12,09,47,14.00
2015,05,12,09,48,14.00
2015,05,12,09,49,14.00
2015,05,12,09,50,14.00
2015,05,12,09,51,14.10
2015,05,12,09,52,14.10
2015,05,12,09,53,14.10
2015,05,12,09,54,14.10
2015,05,12,09,55,14.10
2015,05,12,09,56,14.20
2015,05,12,09,57,14.20
2015,05,12,09,58,14.20
2015,05,12,09,59,14.30
2015,05,12,10,00,14.30
2015,05,12,10,01,14.20
2015,05,12,10,02,14.20
2015,05,12,10,03,14.20
2015,05,12,10,04,14.20
2015,05,12,10,05,14.30
2015,05,12,10,06,14.30
2015,05,12,10,07,14.30
2015,05,12,10,08,14.30
2015,05,12,10,09,14.30
2015,05,12,10,10,14.30
2015,05,12,10,11,14.30
2015,05,12,10,12,14.20
2015,05,12,10,13,14.20
2015,05,12,10,14,14.20
2015,05,12,10,15,14.20
2015,05,12,10,16,14.20
2015,05,12,10,17,14.20
2015,05,12,10,18,14.20
2015,05,12,10,19,14.20
2015,05,12,10,20,14.20
2015,05,12,10,21,14.20
2015,05,12,10,22,14.20
2015,05,12,10,23,14.10
2015,05,12,10,24,14.10
2015,05,12,10,25,14.20
2015,05,12,10,26,14.20
2015,05,12,10,27,14.30
2015,05,12,10,28,14.30
2015,05,12,10,29,14.30
2015,05,12,10,30,14.40
2015,05,12,10,31,14.40
2015,05,12,10,32,14.40
2015,05,12,10,33,14.40
2015,05,12,10,34,14.30
2015,05,12,10,35,14.30
2015,05,12,10,36,14.30
2015,05,12,10,37,14.30
2015,05,12,10,38,14.30
2015,05,12,10,39,14.30
2015,05,12,10,40,14.30
2015,05,12,10,41,14.30
2015,05,12,10,42,14.30
2015,05,12,10,43,14.30
2015,05,12,10,44,14.30
2015,05,12,10,45,14.40
2015,05,12,10,46,14.40
2015,05,12,10,47,14.40
2015,05,12,10,48,14.50
2015,05,12,10,49,14.50
2015,05,12,10,50,14.60
2015,05,12,10,51,14.60
2015,05,12,10,52,14.60
2015,05,12,10,53,14.60
2015,05,12,10,54,14.60
2015,05,12,10,55,14.60
2015,05,12,10,56,14.70
2015,05,12,10,57,14.80
2015,05,12,10,58,14.80
2015,05,12,10,59,14.80
2015,05,12,11,00,14.80
2015,05,12,11,01,14.90
2015,05,12,11,02,14.90
2015,05,12,11,03,14.90
2015,05,12,11,04,15.00
2015,05,12,11,05,15.10
2015,05,12,11,06,15.20
2015,05,12,11,07,15.30
2015,05,12,11,08,15.30
2015,05,12,11,09,15.40
2015,05,12,11,10,15.40
2015,05,12,11,11,15.40
2015,05,12,11,12,15.50
2015,05,12,11,13,15.50
2015,05,12,11,14,15.50
2015,05,12,11,15,15.50
2015,05,12,11,16,15.50
2015,05,12,11,17,15.50
2015,05,12,11,18,15.50
2015,05,12,11,19,15.60
2015,05,12,11,20,15.60
2015,05,12,11,21,15.60
2015,05,12,11,22,15.60
2015,05,12,11,23,15.60
2015,05,12,11,24,15.60
2015,05,12,11,25,15.70
2015,05,12,11,26,15.70
2015,05,12,11,27,15.70
2015,05,12,11,28,15.60
2015,05,12,11,29,15.60
2015,05,12,11,30,15.60
2015,05,12,11,31,15.60
2015,05,12,11,32,15.60
2015,05,12,11,33,15.70
2015,05,12,11,34,15.70
2015,05,12,11,35,15.80
2015,05,12,11,36,15.90
2015,05,12,11,37,15.90
2015,05,12,11,38,15.90
2015,05,12,11,39,15.90
2015,05,12,11,40,15.90
2015,05,12,11,41,15.90
2015,05,12,11,42,15.90
2015,05,12,11,43,15.90
2015,05,12,11,44,15.90
2015,05,12,11,45,15.90
2015,05,12,11,46,16.00
2015,05,12,11,47,16.00
2015,05,12,11,48,16.00
2015,05,12,11,49,16.20
2015,05,12,11,50,16.20
2015,05,12,11,51,16.20
2015,05,12,11,52,16.20
2015,05,12,11,53,16.10
2015,05,12,11,54,16.10
2015,05,12,11,55,16.10
2015,05,12,11,56,16.10
2015,05,12,11,57,16.10
2015,05,12,11,58,16.10
2015,05,12,11,59,16.20
2015,05,12,12,00,16.20
2015,05,12,12,01,16.30
2015,05,12,12,02,16.30
2015,05,12,12,03,16.30
2015,05,12,12,04,16.30
2015,05,12,12,05,16.30
2015,05,12,12,06,16.30
2015,05,12,12,07,16.30
2015,05,12,12,08,16.40
2015,05,12,12,09,16.40
2015,05,12,12,10,16.50
2015,05,12,12,11,16.60
2015,05,12,12,12,16.60
2015,05,12,12,13,16.60
2015,05,12,12,14,16.60
2015,05,12,12,15,16.60
2015,05,12,12,16,16.70
2015,05,12,12,17,16.80
2015,05,12,12,18,16.80
2015,05,12,12,19,16.90
2015,05,12,12,20,16.90
2015,05,12,12,21,16.90
2015,05,12,12,22,17.00
2015,05,12,12,23,17.00
2015,05,12,12,24,16.90
2015,05,12,12,25,16.90
2015,05,12,12,26,16.90
2015,05,12,12,27,16.90
2015,05,12,12,28,17.00
2015,05,12,12,29,17.00
2015,05,12,12,30,17.10
2015,05,12,12,31,17.10
2015,05,12,12,32,17.10
2015,05,12,12,33,17.20
2015,05,12,12,34,17.20
2015,05,12,12,35,17.20
2015,05,12,12,36,17.30
2015,05,12,12,37,17.30
2015,05,12,12,38,17.30
2015,05,12,12,39,17.30
2015,05,12,12,40,17.30
2015,05,12,12,41,17.30
2015,05,12,12,42,17.30
2015,05,12,12,43,17.30
2015,05,12,12,44,17.20
2015,05,12,12,45,17.20
2015,05,12,12,46,17.20
2015,05,12,12,47,17.20
2015,05,12,12,48,17.20
2015,05,12,12,49,17.20
2015,05,12,12,50,17.20
2015,05,12,12,51,17.20
2015,05,12,12,52,17.20
2015,05,12,12,53,17.30
2015,05,12,12,54,17.30
2015,05,12,12,55,17.30
2015,05,12,12,56,17.30
2015,05,12,12,57,17.30
2015,05,12,12,58,17.30
2015,05,12,12,59,17.30
2015,05,12,13,00,17.30
2015,05,12,13,01,17.30
2015,05,12,13,02,17.30
2015,05,12,13,03,17.30
2015,05,12,13,04,17.40
2015,05,12,13,05,17.40
2015,05,12,13,06,17.40
2015,05,12,13,07,17.40
2015,05,12,13,08,17.40
2015,05,12,13,09,17.40
2015,05,12,13,10,17.40
2015,05,12,13,11,17.50
2015,05,12,13,12,17.60
2015,05,12,13,13,17.60
2015,05,12,13,14,17.70
2015,05,12,13,15,17.70
2015,05,12,13,16,17.70
2015,05,12,13,17,17.80
2015,05,12,13,18,17.80
2015,05,12,13,19,17.80
2015,05,12,13,20,17.80
2015,05,12,13,21,17.70
2015,05,12,13,22,17.70
2015,05,12,13,23,17.70
2015,05,12,13,24,17.70
2015,05,12,13,25,17.70
2015,05,12,13,26,17.70
2015,05,12,13,27,17.70
2015,05,12,13,28,17.80
2015,05,12,13,29,17.80
2015,05,12,13,30,17.80
2015,05,12,13,31,17.70
2015,05,12,13,32,17.70
2015,05,12,13,33,17.70
2015,05,12,13,34,17.70
2015,05,12,13,35,17.70
2015,05,12,13,36,17.60
2015,05,12,13,37,17.60
2015,05,12,13,38,17.60
2015,05,12,13,39,17.70
2015,05,12,13,40,17.70
2015,05,12,13,41,17.70
2015,05,12,13,42,17.70
2015,05,12,13,43,17.80
2015,05,12,13,44,17.90
2015,05,12,13,45,17.90
2015,05,12,13,46,17.90
2015,05,12,13,47,18.00
2015,05,12,13,48,18.00
2015,05,12,13,49,18.10
2015,05,12,13,50,18.10
2015,05,12,13,51,18.20
2015,05,12,13,52,18.30
2015,05,12,13,53,18.30
2015,05,12,13,54,18.30
2015,05,12,13,55,18.40
2015,05,12,13,56,18.40
2015,05,12,13,57,18.40
2015,05,12,13,58,18.40
2015,05,12,13,59,18.30
2015,05,12,14,00,18.30
2015,05,12,14,01,18.30
2015,05,12,14,02,18.30
2015,05,12,14,03,18.40
2015,05,12,14,04,18.40
2015,05,12,14,05,18.40
2015,05,12,14,06,18.30
2015,05,12,14,07,18.30
2015,05,12,14,08,18.30
2015,05,12,14,09,18.20
2015,05,12,14,10,18.20
2015,05,12,14,11,18.20
2015,05,12,14,12,18.10
2015,05,12,14,13,18.10
2015,05,12,14,14,18.10
2015,05,12,14,15,18.10
2015,05,12,14,16,18.00
2015,05,12,14,17,18.00
2015,05,12,14,18,18.00
2015,05,12,14,19,18.10
2015,05,12,14,20,18.10
2015,05,12,14,21,18.20
2015,05,12,14,22,18.20
2015,05,12,14,23,18.20
2015,05,12,14,24,18.20
2015,05,12,14,25,18.10
2015,05,12,14,26,18.10
2015,05,12,14,27,18.10
2015,05,12,14,28,18.10
2015,05,12,14,29,18.10
2015,05,12,14,30,18.10
2015,05,12,14,31,18.10
2015,05,12,14,32,18.10
2015,05,12,14,33,18.10
2015,05,12,14,34,18.10
2015,05,12,14,35,18.10
2015,05,12,14,36,18.20
2015,05,12,14,37,18.20
2015,05,12,14,38,18.10
2015,05,12,14,39,18.20
2015,05,12,14,40,18.20
2015,05,12,14,41,18.30
2015,05,12,14,42,18.30
2015,05,12,14,43,18.20
2015,05,12,14,44,18.20
2015,05,12,14,45,18.20
2015,05,12,14,46,18.20
2015,05,12,14,47,18.20
2015,05,12,14,48,18.20
2015,05,12,14,49,18.20
2015,05,12,14,50,18.20
2015,05,12,14,51,18.30
2015,05,12,14,52,18.30
2015,05,12,14,53,18.30
2015,05,12,14,54,18.30
2015,05,12,14,55,18.40
2015,05,12,14,56,18.50
2015,05,12,14,57,18.50
2015,05,12,14,58,18.60
2015,05,12,14,59,18.70
2015,05,12,15,00,18.70
2015,05,12,15,01,18.80
2015,05,12,15,02,18.80
2015,05,12,15,03,18.90
2015,05,12,15,04,19.00
2015,05,12,15,05,19.20
2015,05,12,15,06,19.30
2015,05,12,15,07,19.40
2015,05,12,15,08,19.50
2015,05,12,15,09,19.60
2015,05,12,15,10,19.60
2015,05,12,15,11,19.60
2015,05,12,15,12,19.50
2015,05,12,15,13,19.40
2015,05,12,15,14,19.30
2015,05,12,15,15,19.30
2015,05,12,15,16,19.30
2015,05,12,15,17,19.20
2015,05,12,15,18,19.20
2015,05,12,15,19,19.20
2015,05,12,15,20,19.20
2015,05,12,15,21,19.20
2015,05,12,15,22,19.20
2015,05,12,15,23,19.30
2015,05,12,15,24,19.30
2015,05,12,15,25,19.30
2015,05,12,15,26,19.40
2015,05,12,15,27,19.50
2015,05,12,15,28,19.50
2015,05,12,15,29,19.50
2015,05,12,15,30,19.50
2015,05,12,15,31,19.50
2015,05,12,15,32,19.60
2015,05,12,15,33,19.60
2015,05,12,15,34,19.60
2015,05,12,15,35,19.50
2015,05,12,15,36,19.50
2015,05,12,15,37,19.40
2015,05,12,15,38,19.40
2015,05,12,15,39,19.30
2015,05,12,15,40,19.20
2015,05,12,15,41,19.10
2015,05,12,15,42,19.10
2015,05,12,15,43,19.10
2015,05,12,15,44,19.10
2015,05,12,15,45,19.10
2015,05,12,15,46,19.10
2015,05,12,15,47,19.10
2015,05,12,15,48,19.20
2015,05,12,15,49,19.30
2015,05,12,15,50,19.30
2015,05,12,15,51,19.30
2015,05,12,15,52,19.30
2015,05,12,15,53,19.30
2015,05,12,15,54,19.30
2015,05,12,15,55,19.30
2015,05,12,15,56,19.20
2015,05,12,15,57,19.20
2015,05,12,15,58,19.10
2015,05,12,15,59,19.10
2015,05,12,16,00,19.10
2015,05,12,16,01,19.00
2015,05,12,16,02,19.00
2015,05,12,16,03,19.10
2015,05,12,16,04,19.10
2015,05,12,16,05,19.10
2015,05,12,16,06,19.20
2015,05,12,16,07,19.30
2015,05,12,16,08,19.30
2015,05,12,16,09,19.40
2015,05,12,16,10,19.50
2015,05,12,16,11,19.60
2015,05,12,16,12,19.70
2015,05,12,16,13,19.80
2015,05,12,16,14,19.80
2015,05,12,16,15,19.70
2015,05,12,16,16,19.70
2015,05,12,16,17,19.60
2015,05,12,16,18,19.50
2015,05,12,16,19,19.50
2015,05,12,16,20,19.50
2015,05,12,16,21,19.50
2015,05,12,16,22,19.60
2015,05,12,16,23,19.60
2015,05,12,16,24,19.60
2015,05,12,16,25,19.60
2015,05,12,16,26,19.60
2015,05,12,16,27,19.70
2015,05,12,16,28,19.80
2015,05,12,16,29,19.80
2015,05,12,16,30,19.90
2015,05,12,16,31,19.90
2015,05,12,16,32,19.90
2015,05,12,16,33,19.90
2015,05,12,16,34,19.90
2015,05,12,16,35,19.80
2015,05,12,16,36,19.80
2015,05,12,16,37,19.80
2015,05,12,16,38,19.70
2015,05,12,16,39,19.60
2015,05,12,16,40,19.60
2015,05,12,16,41,19.60
2015,05,12,16,42,19.60
2015,05,12,16,43,19.60
2015,05,12,16,44,19.50
2015,05,12,16,45,19.40
2015,05,12,16,46,19.30
2015,05,12,16,47,19.20
2015,05,12,16,48,19.10
2015,05,12,16,49,19.10
2015,05,12,16,50,19.00
2015,05,12,16,51,19.00
2015,05,12,16,52,19.00
2015,05,12,16,53,19.00
2015,05,12,16,54,18.90
2015,05,12,16,55,18.90
2015,05,12,16,56,18.90
2015,05,12,16,57,18.90
2015,05,12,16,58,18.80
2015,05,12,16,59,18.80
2015,05,12,17,00,18.70
2015,05,12,17,01,18.70
2015,05,12,17,02,18.60
2015,05,12,17,03,18.60
2015,05,12,17,04,18.50
2015,05,12,17,05,18.40
2015,05,12,17,06,18.40
2015,05,12,17,07,18.30
2015,05,12,17,08,18.20
2015,05,12,17,09,18.10
2015,05,12,17,10,18.00
2015,05,12,17,11,18.00
2015,05,12,17,12,17.90
2015,05,12,17,13,17.90
2015,05,12,17,14,17.90
2015,05,12,17,15,17.80
2015,05,12,17,16,17.80
2015,05,12,17,17,17.70
2015,05,12,17,18,17.70
2015,05,12,17,19,17.70
2015,05,12,17,20,17.70
2015,05,12,17,21,17.70
2015,05,12,17,22,17.60